Lid_Strength_Index
2 2 2 2 2 2 2 1 1 1 1 0 0 0 0 1 1 2 2 2 2 2
2 3 2 2 2 2 1 1 1 1 1 0 0 0 1 1 1 2 2 2 2 2
4 3 3 3 3 2 1 1 1 1 1 1 1 1 1 1 1 1 1 1 2 3
6 6 6 6 5 4 3 3 2 2 1 1 1 1 1 1 2 2 2 3 3 3
7 7 7 7 7 6 6 4 4 4 4 3 3 2 2 2 3 3 3 4 4 4
8 7 7 7 7 7 6 6 5 4 5 5 5 3 3 3 3 4 4 5 5 5
8 8 8 7 7 7 7 7 7 6 5 5 5 5 5 5 4 4 5 5 5 5
8 8 8 8 7 7 7 7 7 7 7 6 6 6 6 6 6 6 5 5 5 6
8 8 8 8 8 8 8 8 8 8 8 8 7 6 5 5 7 6 6 6 6 6
9 9 9 9 9 9 9 9 9 9 9 9 8 6 5 5 7 8 8 7 7 7
10 10 10 10 10 10 10 10 10 9 9 9 8 6 6 6 8 9 10 9 9 8
11 11 11 11 11 11 11 11 10 9 9 9 8 7 6 6 8 9 10 9 9 8
11 12 12 12 12 11 11 10 10 10 9 8 8 7 6 6 7 8 8 8 7 6
12 13 13 13 13 13 13 13 13 12 11 10 8 8 6 5 6 6 7 7 7 7